Погода в Земляной

Россия / Тюменская область     56°12′47″N   68°27′32″E
темп.,
°C
ветер,
м/с
пор.,
м/с
влажн.,
%
обл.,
%
осадки,
мм/ч
давл.,
гПа
погр.,
м
7 марта, вс
вс723:00−12юз6129333 0.0 1010257
02:00−13зюз5119461 0.0 1010243
05:00−15зюз479754 0.0 101297
08:00−16зюз349274 0.0 101376
11:00−11ююз238387 0.0 1014240
14:00−8юв3590100 0.0 1011367
17:00−8вюв6995100 1.1 1007521
20:00−8в71295100 2.7 1001632
8 марта, пн
пн823:00−8ссв5895100 5.8 998311
02:00−10сз61192100 0.8 999392
05:00−13зсз5119597 0.8 1003265
08:00−14зсз5119584 0.0 1006271
11:00−13з699085 0.0 1008448
14:00−11зюз588761 0.0 1010651
17:00−12юз589080 0.0 1011488
20:00−13ююз6139197 0.0 1011483
9 марта, вт
вт923:00−11ююз6139398 0.3 1010539
02:00−9ююз7149198 0.2 1009551
05:00−8ююз7149199 0.3 1009521
08:00−7ююз81491100 0.1 1009628
11:00−6ююз81293100 0.3 1009635
14:00−7ююз81390100 0.2 1007684
17:00−6юз81490100 0.3 1006869
20:00−6юз81590100 0.1 1007522
10 марта, ср
ср1023:00−6зсз7128991 0.1 1009523
02:00−12з3493100 0.0 101037
05:00−12юз2292100 0.0 101121
08:00−11ююв2292100 0.0 100926
11:00−7юв2389100 0.0 1008264
14:00−6в3590100 0.0 1005425
17:00−6всв3591100 0.0 1003444
20:00−8всв4795100 0.3 1003253
11 марта, чт
чт1123:00−9всв4895100 1.0 1002283
02:00−11св5995100 0.8 1001297
05:00−13св5995100 1.9 1003346
08:00−14св4695100 0.9 1004326
11:00−13св2393100 1.4 1006398
14:00−12ссв3492100 0.4 1007468
17:00−14с5794100 0.9 1009439
20:00−17ссз489694 0.1 1011249